Location: Moraleja de Matacabras
(41.1073°N, 4.9572°W)
Time: 13:25:32
(UTC+00:00)

Daily predictions for brighter satellites

Satellite Brightness Start Highest point End
(mag) Time Altitude Azimuth Time Altitude Azimuth Time Altitude Azimuth
ATLAS 2AS CENTAUR R/B 3.0 19:44:22 10° SW 19:51:22 77° NW 19:58:15 10° NNE
CZ-4B R/B 4.2 19:49:19 10° SE 19:54:13 31° ENE 19:59:07 10° N
Cosmos 1975 Rocket 3.6 19:52:28 10° NNW 19:56:45 60° W 20:00:58 10° S
SL-4 R/B 2.7 19:58:43 10° NW 20:02:21 41° NNE 20:06:03 10° E
Cosmos 1190 Rocket 4.1 20:01:03 10° NNW 20:06:19 83° WSW 20:11:30 10° SSE
Cosmos 2173 Rocket 4.4 20:00:46 10° SSE 20:06:25 41° E 20:12:08 10° NNE
Okean 1 Rocket 3.8 20:02:39 10° SSE 20:06:35 34° E 20:10:33 10° NNE
Cosmos 1605 Rocket 4.5 20:01:45 10° SSW 20:07:51 66° W 20:14:05 10° N
ADEOS 4.4 20:03:14 10° SE 20:07:55 35° ENE 20:12:36 10° N
Cosmos 332 Rocket 3.9 20:03:52 10° NNW 20:08:35 59° ENE 20:13:15 10° SSE
Cosmos 2058 3.6 20:06:15 10° NNW 20:10:02 51° W 20:13:47 10° S
PAYLOAD B 4.4 20:09:25 10° SSE 20:14:46 56° ENE 20:20:10 10° N
Cosmos 1371 Rocket 4.4 20:09:41 10° SSW 20:14:57 70° WNW 20:20:17 10° NNE
Cosmos 1656 4.4 20:09:52 10° NNW 20:15:15 54° WSW 20:20:40 10° S
Cosmos 2251 Rocket 4.0 20:09:59 10° NNW 20:15:18 65° WSW 20:20:34 10° S
Helios 1A Rocket 2.3 20:14:32 10° NNE 20:17:38 55° ESE 20:20:43 10° S
ERS-1 Rocket 3.0 20:17:40 10° SSE 20:22:36 63° ENE 20:27:33 10° N
Cosmos 1954 Rocket 4.4 20:22:22 10° NNW 20:27:28 63° WSW 20:32:31 10° S
IRAS Rocket 4.3 20:22:09 10° SSE 20:27:37 87° WSW 20:33:08 10° NNW
DELTA 2 R/B (1) 4.1 20:23:22 10° SW 20:28:24 36° SSE 20:33:26 10° E
Cosmos 2082 Rocket 3.2 20:24:19 10° SSE 20:28:51 25° ESE 20:33:25 10° NE
Cosmos 1452 Rocket 3.9 20:24:01 10° S 20:28:54 42° ESE 20:33:48 10° NNE
ATLAS 3B R/B 3.2 20:21:17 10° NNW 20:28:57 59° NE 20:34:58 16° SE
DEBRIS 3.2 20:26:47 10° WSW 20:29:05 53° NNW 20:33:53 10° ENE
SJ 16-02 3.3 20:25:34 10° NW 20:29:06 26° W 20:32:38 10° SSW
USA 276 2.7 20:29:02 10° N 20:29:16 12° N 20:29:16 12° N
Meteor 1-31 Rocket 3.1 20:30:18 10° S 20:33:42 54° W 20:37:07 10° NNW
Sich 1 Rocket 3.6 20:29:49 10° S 20:34:06 60° E 20:38:23 10° NNE
Cosmos 1331 Rocket 3.9 20:30:30 10° S 20:35:43 72° ESE 20:40:56 10° NNE
SL-08 R/B 3.5 20:31:05 10° NNE 20:35:49 54° E 20:40:27 10° S
Cosmos 1802 Rocket 4.2 20:30:04 10° SSE 20:36:00 49° E 20:41:53 10° NNE
Cosmos 968 Rocket 3.5 20:33:34 10° NNW 20:38:49 70° ENE 20:42:54 17° SSE
Cosmos 676 Rocket 4.4 20:38:35 10° NNW 20:43:43 63° WSW 20:48:46 10° S
Terra 1.9 20:46:31 12° S 20:50:49 79° W 20:55:31 10° NNW
NOSS 3-3 (A) 4.2 20:47:26 13° SSE 20:51:08 30° ESE 20:55:59 10° NE
Milstar 3 3.9 20:45:43 10° WSW 20:51:42 32° S 20:56:26 20° SE
Cosmos 1697 Rocket 2.7 20:46:13 10° NNW 20:51:51 82° WSW 20:56:06 18° SSE
Cosmos 1459 Rocket 4.0 20:46:11 10° S 20:52:28 89° ENE 20:58:40 10° N
ASTEX 1 4.3 20:48:37 10° SSW 20:53:23 48° W 20:58:11 10° NNW
IRS-1A Rocket 4.3 20:50:59 16° SSE 20:55:39 81° ENE 21:01:33 10° NNW
SL-16 R/B 4.3 20:54:41 10° NNE 20:57:12 13° NE 20:59:43 10° ENE
Cosmos 2100 Rocket 4.2 20:52:57 10° SSW 20:59:07 74° W 21:05:25 10° N
Cosmos 2228 3.4 20:58:22 29° SE 20:59:42 38° E 21:03:32 10° NNE
USA 306 1.8 20:56:35 10° SW 21:00:05 63° SE 21:00:59 37° ENE
USA 186 1.8 21:00:42 40° ENE 21:00:42 40° ENE 21:03:16 10° N
Cosmos 1782 2.7 21:00:48 36° SE 21:01:43 46° E 21:05:06 10° NNE
Okean 2 Rocket 4.0 20:58:14 10° SSW 21:02:33 49° W 21:06:55 10° N
Cosmos 1743 2.4 21:00:06 10° N 21:03:01 44° E 21:03:16 43° E
Cosmos 1864 Rocket 4.5 20:56:48 10° S 21:03:07 83° E 21:09:31 10° N
SPOT 3 Rocket 4.4 21:02:11 24° ESE 21:04:21 35° ENE 21:08:59 10° N
Cosmos 1850 Rocket 3.9 21:01:37 10° NNW 21:06:48 78° ENE 21:09:35 28° SSE
Cosmos 44 Rocket 3.8 21:02:39 10° SW 21:07:39 67° NW 21:12:48 10° NNE
Cosmos 1607 3.8 21:06:10 10° SSW 21:12:15 73° ESE 21:18:28 10° NE
Cosmos 2333 Rocket 4.3 21:09:32 10° NNE 21:12:44 15° NE 21:15:41 11° E
CZ-4B R/B 3.5 21:13:31 28° ENE 21:13:32 29° ENE 21:16:30 10° N
CZ-4 R/B 3.7 21:14:03 10° SW 21:16:30 17° W 21:18:58 10° NW
Okean O Rocket 1.5 21:15:58 32° SSE 21:17:55 87° W 21:22:14 10° NNW
ISS -2.5 21:15:12 10° WSW 21:18:24 43° NNW 21:21:38 10° NE
Cosmos 2233 Rocket 3.9 21:14:27 20° S 21:18:47 67° E 21:24:56 10° NNE
NOSS 3-3 (C) 3.8 21:17:30 29° SSE 21:19:32 43° ESE 21:24:57 10° NE
Cosmos 1980 Rocket 2.2 21:14:47 10° NNW 21:20:30 76° ENE 21:23:05 34° SE
SL-08 R/B 4.4 21:17:05 16° S 21:22:17 83° E 21:28:39 10° N
USA 305 4.3 21:22:54 10° NNW 21:26:10 23° NNE 21:27:31 19° NE
USA 245 4.4 21:25:10 34° SE 21:27:45 66° ENE 21:33:34 10° N
Cosmos 1725 Rocket 4.3 21:24:57 10° SSW 21:31:11 67° W 21:37:26 10° N
Okean-O 2.9 21:30:19 33° S 21:32:10 62° W 21:36:31 10° NNW
BREEZE-M DEB (TANK) 3.6 21:29:25 10° WNW 21:32:49 88° SSW 21:36:34 31° SE
Tsikada Rocket 3.9 21:27:39 10° N 21:33:51 75° E 21:36:32 36° SSE
Aureole 3 Rocket 4.4 21:30:34 28° SSE 21:34:28 69° E 21:43:14 10° NNE
CZ-4B R/B 4.5 21:29:46 12° SSW 21:34:37 37° W 21:39:50 10° NNW
Ariane Rocket 3.3 21:33:20 40° ESE 21:34:37 50° ENE 21:39:30 10° N
CZ-4C R/B 3.4 21:31:24 10° WSW 21:35:10 33° NW 21:39:49 10° NNE
Cosmos 1455 Rocket 4.0 21:33:19 14° SSW 21:36:57 47° W 21:41:13 10° N
Cosmos 1892 Rocket 3.9 21:33:07 10° NNW 21:37:22 58° W 21:38:57 35° SSW
SL-4 R/B 2.9 21:36:11 10° WNW 21:39:40 33° SW 21:39:46 32° SW
Spot 2 Rocket 4.1 21:37:52 25° SSW 21:40:31 51° W 21:45:25 10° NNW
Cosmos 2360 Rocket 4.2 21:42:47 10° N 21:46:08 16° NE 21:48:24 13° ENE
Cosmos 2084 Rocket 4.2 21:42:38 10° NNW 21:46:37 39° NE 21:47:03 38° ENE
Cosmos 1437 Rocket 4.2 21:48:45 23° NE 21:48:45 23° NE 21:50:26 10° NNE
Gbstr 26 Del rocket 3.0 21:43:10 10° NW 21:48:00 72° NNE 21:48:34 62° E
Cosmos 1544 Rocket 3.6 21:49:36 59° E 21:49:36 59° E 21:53:47 10° NNE
BREEZE-M DEB (TANK) 3.2 21:48:45 10° WSW 21:52:50 47° WSW 21:52:50 47° WSW
USA 234 4.1 21:53:28 10° ENE 21:57:36 30° E 21:57:36 30° E
Cosmos 2237 4.2 21:54:29 10° NNW 22:00:15 71° ENE 22:01:26 55° SE
Cosmos 2061 Rocket 4.2 21:58:13 25° SSW 22:01:57 68° W 22:08:12 10° N
Cosmos 2219 Rocket 4.4 22:00:08 10° NNE 22:02:52 13° NE 22:05:13 11° ENE
BREEZE-M DEB (TANK) 4.2 22:02:33 10° WNW 22:04:36 17° NNW 22:04:52 17° NNW
Cosmos 1992 Rocket 4.1 22:05:20 39° SSW 22:07:18 75° WNW 22:12:31 10° NNE
Cosmos 909 Rocket 4.3 22:01:23 10° SW 22:07:47 68° NW 22:14:09 10° NNE
Cosmos 1758 Rocket 3.5 22:04:33 10° N 22:08:49 81° NE 22:08:49 81° NE
Cosmos 2082 Rocket 3.1 22:07:06 10° SW 22:12:35 47° WNW 22:18:06 10° NNE
Cosmos 2369 3.7 22:08:19 10° NNW 22:14:03 78° WSW 22:15:01 62° S
DELTA 2 R/B (1) 3.4 22:08:51 10° WSW 22:14:23 71° S 22:14:26 71° SSE
Cosmos 2322 Rocket 3.6 22:10:03 10° N 22:14:47 26° NE 22:15:56 24° ENE
CZ-4B R/B 3.6 22:16:46 54° SW 22:17:15 57° WSW 22:21:58 10° NNW
Cosmos 1464 Rocket 4.0 22:18:25 54° ESE 22:18:54 56° E 22:24:53 10° NNE
ATLAS 3B R/B 4.0 22:12:45 10° NW 22:19:17 32° WSW 22:22:12 24° SSW
Cosmos 1375 Rocket 4.4 22:18:44 53° S 22:20:17 73° ESE 22:26:49 10° NE
Cosmos 1513 Rocket 4.4 22:20:26 56° S 22:21:53 87° E 22:28:07 10° N
Meteor 1-5 Rocket 4.5 22:22:24 10° N 22:27:59 53° ENE 22:28:14 53° E
Cosmos 2151 3.5 22:26:27 10° NNW 22:29:47 54° NW 22:29:47 54° NW
Cosmos 1602 Rocket 4.0 22:30:03 10° N 22:33:31 57° N 22:33:31 57° N
Cosmos 1072 Rocket 4.3 22:33:48 68° SSE 22:34:36 82° E 22:40:55 10° N
Cosmos 2278 4.1 22:29:45 10° NNW 22:35:19 51° ENE 22:35:41 50° ENE
COSMOS 2406 3.6 22:36:39 37° SW 22:38:46 61° WNW 22:44:28 10° NNE
SL-16 R/B 2.1 22:36:37 10° NNW 22:42:18 74° ENE 22:42:24 74° ENE
Meteor 1-20 Rocket 4.5 22:39:17 10° NNW 22:44:44 57° W 22:45:16 54° WSW
Helios 1A 4.3 22:42:10 10° NNE 22:44:23 32° NNE 22:44:23 32° NNE
Helios 1B rocket 4.4 22:55:06 21° N 22:55:06 21° N 22:56:30 10° N
Cosmos 2034 Rocket 3.9 22:53:27 70° ESE 22:53:36 70° E 22:59:56 10° NNE
Cosmos 1428 Rocket 4.3 22:47:37 10° N 22:53:53 76° E 22:54:06 75° ESE
ISS -0.6 22:53:46 10° NW 22:55:52 15° N 22:57:24 12° NNE
Cosmos 2333 Rocket 2.1 22:52:09 10° NNW 22:57:41 83° N 22:57:41 83° N
Cosmos 1980 Rocket 4.3 23:00:46 10° WNW 23:03:43 14° W 23:04:50 14° WSW
Cosmos 2098 Rocket 4.3 23:11:33 42° WNW 23:11:33 42° WNW 23:15:54 10° N
Cosmos 540 Rocket 4.2 23:18:15 46° NE 23:18:15 46° NE 23:21:53 10° NNE
Cosmos 1634 Rocket 4.1 23:22:44 62° ENE 23:22:44 62° ENE 23:28:21 10° NNE
Nadezhda 4 Rocket 4.3 23:20:31 10° NNW 23:26:25 52° W 23:26:33 52° W
Cosmos 2333 4.4 23:20:47 10° NNW 23:25:59 67° NNE 23:25:59 67° NNE
NOSS 3-4 (A) 3.9 23:21:37 10° NNW 23:28:34 78° NE 23:29:36 67° ESE
NOSS 3-4 (C) 3.9 23:22:14 10° NNW 23:29:12 78° NE 23:30:16 67° ESE
Cosmos 2360 Rocket 2.4 23:25:12 10° NNW 23:30:08 68° NNW 23:30:08 68° NNW
Meteor 1-26 Rocket 4.5 23:37:51 63° NNW 23:37:51 63° NNW 23:42:41 10° N
USA 234 3.4 23:36:06 10° NE 23:42:35 68° NW 23:44:54 42° WSW
Cosmos 1763 Rocket 4.1 23:43:38 53° NNW 23:43:38 53° NNW 23:48:08 10° NNE
Cosmos 2219 Rocket 2.5 23:42:04 10° NNW 23:46:54 64° N 23:46:54 64° N
Cosmos 2026 Rocket 4.2 23:44:31 10° NNW 23:50:36 61° W 23:50:36 61° W
